Find GMS-T

NORAD ID: 47346 Int'l Des: 2021-004 Owner: OHB/YUANX Country: D operational
LEOCIRCULARRETROGRADE

实时位置

正在加载3D地球...

关于 GMS-T

正在加载描述...

即将过境

Passes for default location (London). Set your location on the main map for personalized predictions.

高度历史

Loading altitude history...

两行轨道根数

1 47346U 21004A 26119.60363335 -.00000023 00000-0 -82155-4 0 9991
2 47346 90.1265 241.2300 0003511 144.6443 215.4922 13.16658635253208
Epoch: Apr 29, 2026 • Age: 8 hours

当前状态

高度 1209.9 km
速度 7.26 km/s
星下点 81.51°N, 49.59°E
发射日期 Jan 20, 2021
运行时间 5.2 years
类型 other

技术详情

分类 Payload
质量 50.00 kg
干质量 45.00 kg
总质量 50.00 kg
长度 1.00 m
直径 0.50 m
跨度 3.00 m
形状 Box+pan
制造商 OHB
平台类型 KLA
阶段状态 In Orbit
所有者/国家 OHB/YUANX/D

Most Searched